Location: Newark
(31.7692°N, 106.4397°W)
Time: 01:55:36
(UTC+00:00)

ISS - Visible Passes

Search period start: 16 December 2019 00:00
Search period end: 26 December 2019 00:00
Orbit: 411 x 421 km, 51.6° (Epoch: 16 December)

Date Brightness Start Highest point End Pass type
(mag) Time Alt. Az. Time Alt. Az. Time Alt. Az.
19 Dec -0.6 13:01:58 10° S 13:04:18 18° SE 13:06:38 10° E visible
21 Dec -3.5 13:00:26 10° SW 13:03:44 68° SE 13:07:01 10° NE visible
22 Dec -2.0 12:13:35 20° S 12:15:15 32° SE 12:18:15 10° ENE visible
23 Dec -0.2 11:28:49 11° E 11:28:49 11° E 11:28:58 10° E visible
23 Dec -3.0 13:01:48 21° W 13:03:20 32° NW 13:06:21 10° NNE visible
24 Dec -2.1 12:16:24 25° NNE 12:16:24 25° NNE 12:18:00 10° NE visible
25 Dec -1.6 13:03:34 13° NNW 13:03:34 13° NNW 13:04:44 10° N visible
